Location: Unspecified
(0.0000°N, 0.0000°E)
Time: 06:01:44
(UTC+00:00)

Envisat - Pass Details

Date: 06 January 2018
Orbit: 764 x 766 km, 98.2° (Epoch: 22 July)

Event Time Altitude Azimuth Distance (km) Brightness Sun altitude
Rises 20:25:37 0° 180° (S) 3,227 6.6 -31.9°
Reaches altitude 10° 20:28:01 10° 186° (S) 2,299 5.8 -32.5°
Enters shadow 20:31:57 41° 229° (SW) 1,102 4.1 -33.3°
